This is the latest recevied weather packets stored in our database for station/object LU1MQF-13. If no packets are shown the sender has not sent any weather packets the latest 10 day(s).
| Time | Temp. | Humidity | Pressure | Rain* | Wind** | Luminosity | Snow |
|---|---|---|---|---|---|---|---|
| 1777502515 | 21.11° C | 30% | 936.4 hPa | - | - | - | - |
| 1777501615 | 21.11° C | 29% | 936.2 hPa | - | - | - | - |
| 1777500715 | 21.11° C | 28% | 936.2 hPa | - | - | - | - |
| 1777499814 | 21.11° C | 28% | 936 hPa | - | - | - | - |
| 1777498915 | 22.22° C | 27% | 935.9 hPa | - | - | - | - |
| 1777498015 | 22.22° C | 27% | 935.7 hPa | - | - | - | - |
| 1777497115 | 22.78° C | 27% | 935.7 hPa | - | - | - | - |
| 1777496215 | 22.78° C | 30% | 935.7 hPa | - | - | - | - |
| 1777495315 | 22.78° C | 26% | 935.7 hPa | - | - | - | - |
| 1777494415 | 22.78° C | 23% | 935.8 hPa | - | - | - | - |
| 1777493515 | 23.89° C | 21% | 935.6 hPa | - | - | - | - |
| 1777492615 | 23.89° C | 21% | 935.7 hPa | - | - | - | - |
| 1777491715 | 23.89° C | 21% | 935.8 hPa | - | - | - | - |
| 1777490815 | 23.89° C | 21% | 935.9 hPa | - | - | - | - |
| 1777489915 | 23.89° C | 21% | 935.9 hPa | - | - | - | - |
| 1777489014 | 25° C | 21% | 936 hPa | - | - | - | - |
| 1777488114 | 25° C | 22% | 936 hPa | - | - | - | - |
| 1777487214 | 23.89° C | 23% | 936.2 hPa | - | - | - | - |
| 1777486314 | 23.89° C | 23% | 936.2 hPa | - | - | - | - |
| 1777485414 | 23.89° C | 25% | 936.4 hPa | - | - | - | - |
| 1777484515 | 23.89° C | 26% | 936.7 hPa | - | - | - | - |
| 1777483614 | 23.89° C | 26% | 936.8 hPa | - | - | - | - |
| 1777482714 | 23.89° C | 26% | 937.1 hPa | - | - | - | - |
| 1777481814 | 23.89° C | 28% | 937.3 hPa | - | - | - | - |
| 1777480914 | 23.89° C | 30% | 937.4 hPa | - | - | - | - |
* Rain since midnight (hover to see other rain measurements)
** Current wind speed in m/s (hover to see current wind gust speed)